Flag for Laos Weather past 2 weeks in Vientiane, Laos

Now
86 °F

Scattered clouds.


Feels Like: 95 °F
Forecast: 74 / 83 °F
Wind: 2 mph from South

Location: Vientiane Airport

Current Time: Aug 4, 2015 at 1:18:27 PM

Latest Report: Aug 4, 2015 at 1:00 PM


Visibility: N/A

Pressure: 29.71 "Hg

Humidity: 70%

Dew point: 75 °F

Location of VientianeLocation

Historic Weather in Vientiane — Graph

°F

Vientiane temperature yesterday

Maximum temperature yesterday: 86 °F (at 2:00 PM)
Minimum temperature yesterday: 75 °F (at 6:00 AM)
Average temperature yesterday: 80 °F

Past Weeks' High & Low Weather Summary

 TemperatureHumidityPressure
High90 °F (Jul 26, 2:30 PM)100% (Jul 22, 6:00 AM)29.89 "Hg (Jul 22, 6:00 AM)
Low73 °F (Jul 30, 6:00 AM)59% (Jul 26, 2:30 PM)29.65 "Hg (Jul 20, 5:00 PM)
Average80 °F86%29.78 "Hg
* Reported Jul 20 1:30 PM — Aug 4 12:00 Noon, Vientiane, Weather by CustomWeather, © 2015

Note: Actual official high and low records may vary slightly from our data, if they occured in-between our weather recording intervals... More about our weather records

Advertising

Vientiane weather history for previous 24 hours

 ConditionsComfort  
Time TempWeatherWind HumidityBarometerVisibility
12:00 PM
Tue, Aug 4
82 °FBroken clouds.2 mph74%29.74 "Hg4 mi
11:30 AM84 °FBroken clouds.2 mph74%29.77 "Hg4 mi
11:00 AM82 °FBroken clouds.2 mph79%29.77 "Hg4 mi
10:30 AM82 °FPartly sunny.2 mph79%29.77 "Hg4 mi
10:00 AM81 °FPartly sunny.2 mph84%29.77 "Hg4 mi
9:30 AM81 °FPartly sunny.2 mph84%29.77 "Hg4 mi
9:00 AM79 °FPartly sunny.2 mph89%29.77 "Hg4 mi
8:30 AM79 °FBroken clouds.2 mph84%29.74 "Hg4 mi
8:00 AM77 °FBroken clouds.2 mph89%29.74 "Hg4 mi
7:30 AM77 °FFog.2 mph94%29.74 "Hg3 mi
7:00 AM75 °FFog.2 mph100%29.74 "Hg3 mi
6:30 AM75 °FFog.2 mph94%29.74 "Hg2 mi
6:00 AM75 °FFog.2 mph94%29.74 "Hg2 mi
11:00 PM
Mon, Aug 3
79 °FFog.2 mph84%29.77 "Hg2 mi
10:30 PM79 °FFog.2 mph84%29.77 "Hg2 mi
10:00 PM79 °FFog.2 mph84%29.77 "Hg2 mi
9:30 PM79 °FPassing clouds.2 mph94%29.74 "Hg2 mi
9:00 PM79 °FPassing clouds.2 mph94%29.74 "Hg2 mi
8:30 PM79 °FRain. Passing clouds.2 mph94%29.74 "Hg2 mi
8:00 PM79 °FThunderstorms. Passing clouds.5 mph94%29.74 "Hg2 mi
7:30 PM79 °FRain. Passing clouds.2 mph89%29.71 "Hg2 mi
7:00 PM81 °FRain. Passing clouds.2 mph84%29.71 "Hg2 mi
6:30 PM81 °FRain. Partly sunny.2 mph89%29.68 "Hg2 mi
6:00 PM81 °FPartly sunny.2 mph89%29.68 "Hg4 mi
5:30 PM82 °FBroken clouds.2 mph84%29.68 "Hg4 mi
4:30 PM82 °FPartly sunny.2 mph84%29.68 "Hg4 mi
4:00 PM82 °FPartly sunny.2 mph84%29.68 "Hg4 mi
3:30 PM81 °FRain. Partly sunny.2 mph84%29.71 "Hg1 mi
3:00 PM86 °FRain. Broken clouds.2 mph70%29.71 "Hg5 mi
2:30 PM86 °FBroken clouds.2 mph70%29.74 "HgN/A
2:00 PM86 °FBroken clouds.2 mph70%29.74 "HgN/A
1:30 PM82 °FBroken clouds.2 mph79%29.77 "Hg5 mi
1:00 PM82 °FBroken clouds.2 mph79%29.77 "Hg5 mi
Weather by CustomWeather, © 2015

See weather overviewHow to use our weather pages